THORAD DELTA 1 DEB, 8182

Orbit data source: Space-Track

THORAD DELTA 1 DEB, 8182 is space debris in SSO originally from a launch on Fri, 15 Nov 1974 UTC launched from the Air Force Western Test Range (AFWTR). Debris objects in space refer to the collection of defunct objects orbiting the Earth. Examples of debris include non-operational satellites, rocket bodies, and fragments generated from explosions, collisions, or faulty payload assembly.

Loading next visibility...
Identifier
8182, 1974-089AY
Orbit
SSO
Country
Flag of USUS
Related business
Manufacturer
Unknown
Mission
Spacecraft
Bus & Motor
Unknown
Mass
Unknown
Launch date (UTC)
1974-11-15 (52 years ago)
Launch vehicle
Unknown
Launch site
Air Force Western Test Range (AFWTR)
Object type
Payload
Rocket body
Debris
Shape & HBR
Unknown shape, 0.1 m
Radar Cross Section
Small (<0.1 m²)

Expand to show TLE details & history
Last TLE update: 3 days ago

TLE from 3 days ago
0 THORAD DELTA 1 DEB
1 08182U 74089AY  26142.17835250  .00001333  00000-0  55931-2 0  9998
2 08182 100.3769 219.7289 0155793 157.6299 232.3490 12.81712679363238
Epoch: 2026-05-22T04:16Z
TLE epoch observation values (Epoch: 2026-05-22T04:16:49.655Z)
Latitude
28.11373°
Longitude
-89.87751°
Altitude
1,412.413 km
Speed
7.122 km/s
True Right ascension
14h 16m 34s
True Declination
27° 58' 59"
Sunlit
Object was in full shadow at epoch
Visualization orbit readout
Latitude
Unknown
Longitude
Unknown
Altitude
Unknown
Speed
Unknown
Apparent Right ascension
Unknown
Apparent Declination
Unknown
Sunlit
N/A
Visualization observer readout
Local Sidereal Time
14:50:24
Azimuth
Unknown
Elevation
Unknown
Doppler factor
Unknown
Orbital elements
Apogee altitude
1,452.138 km
Perigee altitude
1,211.9 km
Semi-major axis
7,710.156 km
Eccentricity
0.01558
Inclination
100.3769°
RAAN
219.7289°
Arg. of periapsis
157.6299°
True anomaly
230.95229°
Mean anomaly
232.349°
Eccentric anomaly
231.64898°
Mean motion
3.20589 °/min
Orbital period
112.29 mins
BSTAR
0.0055931
Loading maneuver chart data...
Computing Atmospheric mass density...
Loading historical data...
Loading historical data...
Loading historical data...
Loading historical data...
Loading historical data...
Loading historical data...
Loading historical data...

Documentation

Showing up to 5 results
|